• In Netherlands
  • List of Countries
  • For 7 days
  • Water Temperature
  • Satellite Maps
  • Weather Map
  • Weather Widgets
  • user-avatar
    Login

    Hourly Weather Vratsa

    Today, 25 April, Tuesday

    Time Temperature Precipitation Wind Pressure Humidity
    00:00 +3°C° 0 mm 2 mps 711 mmHg 68%
    01:00 +3°C° 0 mm 2 mps 711 mmHg 66%
    02:00 +3°C° 0 mm 2 mps 711 mmHg 59%
    03:00 +3°C° 0 mm 2 mps 711 mmHg 58%
    04:00 +2°C° 0 mm 2 mps 711 mmHg 57%
    05:00 +2°C° 0 mm 2 mps 710 mmHg 57%
    06:00 +5°C° 0 mm 2 mps 711 mmHg 54%
    07:00 +7°C° 0 mm 2 mps 711 mmHg 51%
    08:00 +9°C° 0 mm 2 mps 711 mmHg 49%
    09:00 +12°C° 0 mm 2 mps 711 mmHg 46%
    10:00 +14°C° 0 mm 2 mps 712 mmHg 43%
    11:00 +16°C° 0 mm 2 mps 712 mmHg 41%
    12:00 +17°C° 0 mm 2 mps 711 mmHg 40%
    13:00 +18°C° 0 mm 2 mps 711 mmHg 39%
    14:00 +19°C° 0 mm 2 mps 711 mmHg 38%
    15:00 +19°C° 0 mm 2 mps 710 mmHg 40%
    16:00 +19°C° 0 mm 2 mps 710 mmHg 43%
    17:00 +18°C° 0 mm 2 mps 710 mmHg 45%
    18:00 +16°C° 0 mm 2 mps 709 mmHg 53%
    19:00 +13°C° 0 mm 2 mps 709 mmHg 60%
    20:00 +10°C° 0 mm 2 mps 709 mmHg 68%
    21:00 +9°C° 0 mm 2 mps 709 mmHg 69%
    22:00 +8°C° 0 mm 3 mps 709 mmHg 71%
    23:00 +8°C° 0 mm 3 mps 709 mmHg 72%

    Tomorrow, 26 April, Wednesday

    Time Temperature Precipitation Wind Pressure Humidity
    00:00 +7°C° 0 mm 3 mps 709 mmHg 74%
    01:00 +7°C° 0 mm 3 mps 709 mmHg 75%
    02:00 +7°C° 0 mm 3 mps 709 mmHg 77%
    03:00 +6°C° 0 mm 2 mps 709 mmHg 79%
    04:00 +6°C° 0 mm 2 mps 709 mmHg 81%
    05:00 +5°C° 0 mm 2 mps 709 mmHg 83%
    06:00 +7°C° 0 mm 2 mps 709 mmHg 76%
    07:00 +9°C° 0 mm 2 mps 709 mmHg 70%
    08:00 +12°C° 0 mm 1 mps 710 mmHg 64%
    09:00 +15°C° 0 mm 1 mps 710 mmHg 58%
    10:00 +18°C° 0 mm 1 mps 710 mmHg 51%
    11:00 +20°C° 0 mm 1 mps 710 mmHg 45%
    12:00 +21°C° 0 mm 1 mps 710 mmHg 42%
    13:00 +20°C° 0 mm 2 mps 709 mmHg 38%
    14:00 +21°C° 0 mm 2 mps 709 mmHg 35%
    15:00 +21°C° 0 mm 2 mps 709 mmHg 37%
    16:00 +21°C° 0 mm 2 mps 709 mmHg 39%
    17:00 +21°C° 0 mm 2 mps 708 mmHg 40%
    18:00 +18°C° 0 mm 2 mps 708 mmHg 49%
    19:00 +15°C° 0 mm 2 mps 708 mmHg 58%
    20:00 +12°C° 0 mm 2 mps 708 mmHg 67%
    21:00 +10°C° 0 mm 2 mps 708 mmHg 66%
    22:00 +10°C° 0 mm 2 mps 708 mmHg 65%
    23:00 +9°C° 0 mm 2 mps 708 mmHg 64%

    Day after tomorrow, 27 April, Thursday

    Time Temperature Precipitation Wind Pressure Humidity
    00:00 +9°C° 0 mm 2 mps 708 mmHg 64%
    01:00 +9°C° 0 mm 2 mps 708 mmHg 64%
    02:00 +8°C° 0 mm 2 mps 708 mmHg 64%
    03:00 +8°C° 0 mm 2 mps 708 mmHg 66%
    04:00 +7°C° 0 mm 2 mps 708 mmHg 67%
    05:00 +7°C° 0 mm 2 mps 708 mmHg 68%
    06:00 +9°C° 0 mm 2 mps 708 mmHg 64%
    07:00 +12°C° 0 mm 1 mps 709 mmHg 59%
    08:00 +14°C° 0 mm 1 mps 709 mmHg 55%
    09:00 +18°C° 0 mm 1 mps 709 mmHg 49%
    10:00 +20°C° 0 mm 1 mps 710 mmHg 44%
    11:00 +22°C° 0 mm 1 mps 710 mmHg 38%
    12:00 +23°C° 0 mm 1 mps 709 mmHg 36%
    13:00 +24°C° 0 mm 1 mps 709 mmHg 34%
    14:00 +25°C° 0 mm 1 mps 709 mmHg 32%
    15:00 +24°C° 0 mm 1 mps 709 mmHg 34%
    16:00 +24°C° 0 mm 2 mps 708 mmHg 37%
    17:00 +24°C° 0 mm 2 mps 708 mmHg 39%
    18:00 +20°C° 0 mm 2 mps 708 mmHg 48%
    19:00 +17°C° 0 mm 2 mps 707 mmHg 57%
    20:00 +14°C° 0 mm 2 mps 707 mmHg 66%
    21:00 +14°C° 0 mm 2 mps 707 mmHg 64%
    22:00 +13°C° 0 mm 2 mps 707 mmHg 63%
    23:00 +12°C° 0 mm 2 mps 707 mmHg 62%

    28 April, Friday

    Time Temperature Precipitation Wind Pressure Humidity
    00:00 +12°C° 0 mm 2 mps 707 mmHg 62%
    01:00 +12°C° 0 mm 2 mps 707 mmHg 62%
    02:00 +12°C° 0 mm 2 mps 707 mmHg 62%
    03:00 +10°C° 0 mm 2 mps 707 mmHg 64%
    04:00 +10°C° 0 mm 2 mps 706 mmHg 65%
    05:00 +9°C° 0 mm 2 mps 706 mmHg 67%
    06:00 +12°C° 0 mm 2 mps 707 mmHg 63%
    07:00 +15°C° 0 mm 2 mps 707 mmHg 58%
    08:00 +18°C° 0 mm 1 mps 707 mmHg 54%
    09:00 +20°C° 0 mm 1 mps 707 mmHg 49%
    10:00 +22°C° 0 mm 1 mps 708 mmHg 43%
    11:00 +24°C° 0 mm 1 mps 708 mmHg 38%
    12:00 +25°C° 0 mm 1 mps 707 mmHg 36%
    13:00 +26°C° 0 mm 2 mps 707 mmHg 34%
    14:00 +27°C° 0 mm 2 mps 707 mmHg 32%
    15:00 +27°C° 0 mm 2 mps 706 mmHg 35%
    16:00 +26°C° 0 mm 2 mps 706 mmHg 37%
    17:00 +26°C° 0 mm 3 mps 706 mmHg 40%
    18:00 +23°C° 0 mm 2 mps 706 mmHg 48%
    19:00 +20°C° 0 mm 2 mps 705 mmHg 56%
    20:00 +17°C° 0 mm 2 mps 705 mmHg 64%
    21:00 +17°C° 0 mm 2 mps 705 mmHg 62%
    22:00 +16°C° 0 mm 2 mps 705 mmHg 60%
    23:00 +16°C° 0 mm 3 mps 705 mmHg 59%

    29 April, Saturday

    Time Temperature Precipitation Wind Pressure Humidity
    00:00 +15°C° 0 mm 2 mps 705 mmHg 60%
    01:00 +15°C° 0 mm 2 mps 705 mmHg 62%
    02:00 +14°C° 0 mm 2 mps 705 mmHg 64%
    03:00 +14°C° 0 mm 2 mps 705 mmHg 65%
    04:00 +14°C° 0 mm 2 mps 705 mmHg 66%
    05:00 +13°C° 0 mm 1 mps 705 mmHg 67%
    06:00 +15°C° 0.1 mm 1 mps 705 mmHg 65%
    07:00 +16°C° 0.1 mm 1 mps 705 mmHg 64%
    08:00 +19°C° 0.1 mm 1 mps 706 mmHg 62%
    09:00 +19°C° 0 mm 2 mps 706 mmHg 58%
    10:00 +20°C° 0 mm 2 mps 706 mmHg 53%
    11:00 +21°C° 0 mm 3 mps 706 mmHg 49%
    12:00 +22°C° 0.1 mm 3 mps 706 mmHg 48%
    13:00 +22°C° 0.1 mm 3 mps 706 mmHg 47%
    14:00 +23°C° 0.1 mm 4 mps 706 mmHg 47%
    15:00 +20°C° 0.7 mm 4 mps 705 mmHg 57%
    16:00 +18°C° 0.7 mm 3 mps 705 mmHg 68%
    17:00 +16°C° 0.7 mm 3 mps 705 mmHg 78%
    18:00 +14°C° 0.1 mm 3 mps 705 mmHg 82%
    19:00 +12°C° 0.1 mm 3 mps 706 mmHg 85%
    20:00 +12°C° 0.1 mm 2 mps 706 mmHg 89%
    21:00 +12°C° 0 mm 2 mps 706 mmHg 89%
    22:00 +10°C° 0 mm 2 mps 707 mmHg 90%
    23:00 +10°C° 0 mm 2 mps 707 mmHg 90%

    30 April, Sunday

    Time Temperature Precipitation Wind Pressure Humidity
    00:00 +9°C° 0 mm 2 mps 707 mmHg 91%
    01:00 +10°C° 0 mm 1 mps 707 mmHg 91%
    02:00 +9°C° 0 mm 1 mps 707 mmHg 91%
    03:00 +9°C° 0 mm 1 mps 708 mmHg 91%
    04:00 +9°C° 0 mm 1 mps 708 mmHg 90%
    05:00 +9°C° 0 mm 1 mps 708 mmHg 89%
    06:00 +10°C° 0 mm 1 mps 708 mmHg 84%
    07:00 +11°C° 0 mm 1 mps 709 mmHg 79%
    08:00 +12°C° 0 mm 1 mps 709 mmHg 74%
    09:00 +13°C° 0 mm 1 mps 709 mmHg 68%
    10:00 +15°C° 0 mm 1 mps 709 mmHg 62%
    11:00 +16°C° 0 mm 1 mps 710 mmHg 56%
    12:00 +18°C° 0 mm 1 mps 709 mmHg 55%
    13:00 +18°C° 0 mm 2 mps 709 mmHg 54%
    14:00 +19°C° 0 mm 2 mps 709 mmHg 53%
    15:00 +18°C° 0.1 mm 2 mps 709 mmHg 58%
    16:00 +18°C° 0.1 mm 3 mps 709 mmHg 62%
    17:00 +17°C° 0.1 mm 3 mps 708 mmHg 67%
    18:00 +16°C° 0.1 mm 3 mps 708 mmHg 74%
    19:00 +15°C° 0.1 mm 2 mps 708 mmHg 81%
    20:00 +13°C° 0.1 mm 2 mps 708 mmHg 88%
    21:00 +13°C° 0.1 mm 2 mps 708 mmHg 89%
    22:00 +12°C° 0.1 mm 2 mps 709 mmHg 91%
    23:00 +12°C° 0.1 mm 2 mps 709 mmHg 92%
    Show more